Regional Weather Roundup
Issued by NWS

Home | Current Version | Previous Version | Graphics & Text | Print | Product List | Glossary Off
Versions: 1 2 3 4 5 6 7 8 9 10 11 12 13 14 15 16 17 18 19 20 21 22 23 24 25 26 27 28 29 30 31 32 33 34 35 36 37 38 39 40 41 42 43 44 45 46 47 48 49 50

000
ASUS45 KBOU 301707
RWRCO

WEATHER ROUNDUP FOR COLORADO
NATIONAL WEATHER SERVICE DENVER/BOULDER CO
1100 AM MDT SAT AUG 30 2014

NOTE: "FAIR" INDICATES FEW OR NO CLOUDS BELOW 12000 FEET WITH NO
SIGNIFICANT WEATHER AND/OR OBSTRUCTIONS TO VISIBILITY.

COZ001>005-013-030-031-301800-
...NORTHWEST COLORADO...

CITY           SKY/WX    TMP DP  RH WIND       PRES   REMARKS
CRAIG          SUNNY     73  46  38 NE8       30.13F
HAYDEN         SUNNY     66  45  45 E9        30.16S
MEEKER         PTSUNNY   69  48  47 N5        30.15F
MOUNT WERNER   NOT AVBL
STEAMBOAT SPGS SUNNY     64  47  54 CALM      30.18F
WALDEN         SUNNY     64  37  36 S9        30.25S
$$

COZ006>008-011-301800-
...WEST CENTRAL VALLEYS...

CITY           SKY/WX    TMP DP  RH WIND       PRES   REMARKS
GRAND JUNCTION MOSUNNY   73  47  39 SE10      30.08F
MONTROSE       SUNNY     73  49  42 N6        30.17F
EAGLE          MOSUNNY   61  45  55 CALM      30.24F
RIFLE          PTSUNNY   66  46  48 CALM      30.14F
DELTA          SUNNY     76  45  33 NE3       30.14F
NUCLA          SUNNY     72  45  37 NW3       30.21S
$$

COZ017>023-064>068-301800-
...SOUTHWEST COLORADO...

CITY           SKY/WX    TMP DP  RH WIND       PRES   REMARKS
DURANGO        SUNNY     72  39  30 VRB7      30.26S
CORTEZ         SUNNY     75  43  31 CALM      30.19F
PAGOSA SPRINGS SUNNY     67  34  29 CALM      30.33S
TELLURIDE      NOT AVBL
WOLF CREEK PAS SUNNY     50  36  57 S13G21    30.58S
$$

COZ009-010-012-014-032>034-037-058>063-301800-
...CENTRAL COLORADO...

CITY           SKY/WX    TMP DP  RH WIND       PRES   REMARKS
ASPEN          SUNNY     68  42  38 N5        30.26F
BUENA VISTA    SUNNY     64  37  37 SE5       30.30F
COPPER MTN     MOSUNNY   54  30  40 W13G28    30.55S
BERTHOUD PASS  FAIR      45  43  93 W23G30    30.56F
COTTONWOOD PAS SUNNY     63  36  36 SE3       30.41F
GUNNISON       SUNNY     59  39  47 CALM      30.34F
KREMMLING      SUNNY     59  43  55 CALM      30.27F
LEADVILLE      SUNNY     58  32  37 VRB6      30.39F
MONARCH PASS   SUNNY     48  34  57 SW16G22   30.66S
SALIDA         SUNNY     66  42  40 N3        30.33F
SUNLIGHT       MOSUNNY   61  43  51 CALM      30.49S
WILKERSON PASS NOT AVBL
$$

COZ069>075-301800-
...SAN LUIS VALLEY/SANGRE DE CRISTO MOUNTAINS...

CITY           SKY/WX    TMP DP  RH WIND       PRES   REMARKS
ALAMOSA        SUNNY     64  42  44 MISG      30.30F
LA VETA PASS   NOT AVBL
SAGUACHE       NOT AVBL
$$

COZ035-036-038>040-301800-
...NORTHERN COLORADO FRONT RANGE...

CITY           SKY/WX    TMP DP  RH WIND       PRES   REMARKS
DENVER INTL AP MOSUNNY   77  48  35 S9        30.05F
DMNS CITY PARK   N/A     77  46  34 S5        30.05F
AURORA         MOSUNNY   77  47  34 S9        30.08F
FRONT RANGE AP NOT AVBL
ERIE MUNI ARPT SUNNY     77  44  31 CALM      30.03F
BOULDER MUN AP SUNNY     73  52  46 E3        30.04F
CENTENNIAL     MOSUNNY   75  42  30 SW6       30.09F
BROOMFIELD     MOSUNNY   75  46  35 SE6       30.07F
FORT COLLINS   SUNNY     70  54  56 SE5       30.04F
LONGMONT       SUNNY     74  52  46 E3        30.05F
$$

COZ041-046-047-076>085-087-088-301800-
...PIKES PEAK/PALMER DIVIDE AND SOUTHERN FOOTHILLS...

CITY           SKY/WX    TMP DP  RH WIND       PRES   REMARKS
COLO. SPRINGS  MOSUNNY   74  43  32 S7        30.15F
A. F. ACADEMY  SUNNY     72  43  35 SE5       30.16F
ELLICOTT       SUNNY     72  46  39 S5        30.14F
FALCON         NOT AVBL
FORT CARSON    SUNNY     73  46  38 E2        30.12F
LIMON          SUNNY     78  46  32 S12       30.09F
MONUMENT HILL  SUNNY     72  37  28 SW14      30.18F
TRINIDAD       SUNNY     81  42  25 W10       30.14F
$$

COZ042>045-048>051-090-091-301800-
...NORTHEAST COLORADO...

CITY           SKY/WX    TMP DP  RH WIND       PRES   REMARKS
GREELEY ARPT   SUNNY     68  52  56 NW3       30.04F
AKRON          SUNNY     76  50  40 W8        30.03F
BURLINGTON     SUNNY     82  47  29 SW20G26   30.05F
WRAY             N/A     80  57  45 S7G20     30.00F
STERLING       SUNNY     75  59  57 SW5       29.99F
HOLYOKE        SUNNY     79  61  53 S10       30.00F
FORT MORGAN    SUNNY     71  52  50 W8        30.03F
$$

COZ086-089-092>099-301800-
...SOUTHEAST COLORADO...

CITY           SKY/WX    TMP DP  RH WIND       PRES   REMARKS
PUEBLO         SUNNY     77  45  32 CALM      30.06F
LA JUNTA       SUNNY     77  52  41 SW5       30.05F
LAMAR          SUNNY     83  51  33 S6        30.02F
SPRINGFIELD      N/A     81  50  33 S17G24    30.08F
$$


USA.gov is the U.S. government's official web portal to all federal, state and local government web resources and services.